This is the latest recevied weather packets stored in our database for station/object KC3ULW-13. If no packets are shown the sender has not sent any weather packets the latest 10 day(s).
| Time | Temp. | Humidity | Pressure | Rain* | Wind** | Luminosity | Snow |
|---|---|---|---|---|---|---|---|
| 1777852609 | 13.89° C | 40% | 1016 hPa | 0 mm | - | 12 W/m² | - |
| 1777852305 | 13.89° C | 40% | 1016 hPa | 0 mm | - | 16 W/m² | - |
| 1777852004 | 14.44° C | 39% | 1016 hPa | 0 mm | - | 23 W/m² | - |
| 1777851701 | 14.44° C | 39% | 1016.3 hPa | 0 mm | - | 29 W/m² | - |
| 1777851398 | 14.44° C | 38% | 1016.1 hPa | 0 mm | - | 32 W/m² | - |
| 1777851094 | 14.44° C | 38% | 1016.1 hPa | 0 mm | - | 37 W/m² | - |
| 1777850791 | 14.44° C | 38% | 1016.1 hPa | 0 mm | - | 42 W/m² | - |
| 1777850488 | 15° C | 37% | 1016.2 hPa | 0 mm | - | 46 W/m² | - |
| 1777850186 | 15° C | 38% | 1016.2 hPa | 0 mm | - | 55 W/m² | - |
| 1777849882 | 15° C | 37% | 1016.4 hPa | 0 mm | - | 65 W/m² | - |
| 1777849579 | 15° C | 37% | 1016.4 hPa | 0 mm | - | 61 W/m² | - |
| 1777849276 | 15.56° C | 37% | 1016.2 hPa | 0 mm | - | 84 W/m² | - |
| 1777848974 | 15.56° C | 36% | 1016.2 hPa | 0 mm | - | 101 W/m² | - |
| 1777848673 | 15.56° C | 36% | 1016 hPa | 0 mm | - | 115 W/m² | - |
| 1777848371 | 15.56° C | 36% | 1016.2 hPa | 0 mm | - | 134 W/m² | - |
| 1777848069 | 16.11° C | 37% | 1016.2 hPa | 0 mm | - | 125 W/m² | - |
| 1777847767 | 16.11° C | 37% | 1016.1 hPa | 0 mm | - | 138 W/m² | - |
| 1777847462 | 15.56° C | 36% | 1016.3 hPa | 0 mm | - | 151 W/m² | - |
| 1777847160 | 15.56° C | 36% | 1016.5 hPa | 0 mm | - | 195 W/m² | - |
| 1777846858 | 16.11° C | 35% | 1016.2 hPa | 0 mm | - | 219 W/m² | - |
| 1777846556 | 16.11° C | 35% | 1016.5 hPa | 0 mm | - | 147 W/m² | - |
| 1777846253 | 15.56° C | 35% | 1016.3 hPa | 0 mm | - | 157 W/m² | - |
| 1777845949 | 15.56° C | 35% | 1016.4 hPa | 0 mm | - | 269 W/m² | - |
| 1777845646 | 15.56° C | 36% | 1016.3 hPa | 0 mm | - | 223 W/m² | - |
| 1777845343 | 15° C | 36% | 1016.4 hPa | 0 mm | - | 150 W/m² | - |
* Rain latest hour (hover to see other rain measurements)
** Current wind speed in m/s (hover to see current wind gust speed)